Regional Weather Roundup
Issued by NWS

Home | Current Version | Previous Version | Text Only | Print | Product List | Glossary On
Versions: 1 2 3 4 5 6 7 8 9 10 11 12 13 14 15 16 17 18 19 20 21 22 23 24 25 26 27 28 29 30 31 32 33 34 35 36 37 38 39 40 41 42 43 44 45 46 47 48 49 50
233
ASUS43 KDTX 230410
RWRMI
MICHIGAN HOURLY REGIONAL WEATHER ROUNDUP
NATIONAL WEATHER SERVICE DETROIT/PONTIAC MI
1200 AM EDT SUN APR 23 2017

NOTE: "FAIR" INDICATES FEW OR NO CLOUDS BELOW 12,000 FEET WITH NO
SIGNIFICANT WEATHER AND/OR OBSTRUCTION TO VISIBILITY.

MIZ047>049-052>055-059>063-066>070-074>076-081>083-230500-
SOUTHEAST LOWER MICHIGAN

CITY           SKY/WX    TMP DP  RH WIND       PRES   REMARKS
ADRIAN         CLEAR     42  36  79 CALM      30.16R
ALMA           CLEAR     42  39  90 SW6       30.14S
ANN ARBOR      CLEAR     41  37  86 CALM      30.15R
BAD AXE        CLEAR     37  34  87 CALM      30.14S
CARO           CLEAR     37  34  87 CALM      30.13S
DETROIT CITY   CLEAR     45  26  47 CALM      30.15S
DETROIT        PTCLDY    48  30  49 CALM      30.16R
FLINT          CLEAR     40  34  79 CALM      30.15S
GROSSE ILE     CLEAR     44  34  69 CALM      30.14S
HILLSDALE      CLEAR     43  34  70 CALM      30.14S
HOWELL         CLEAR     42  32  69 CALM      30.14S

CITY           SKY/WX    TMP DP  RH WIND       PRES   REMARKS
JACKSON        CLEAR     44  37  76 SW3       30.14S
LAMBERTVILLE   CLEAR     40  36  85 CALM      30.15S
LANSING        CLEAR     44  33  65 CALM      30.15R
LAPEER         FAIR      38  34  84 CALM      30.15S
MASON          CLEAR     42  38  83 CALM      30.14S
MONROE         CLEAR     41  37  87 N3        30.14S
MT. CLEMENS    CLEAR     42  29  59 E3        30.13S
PONTIAC        PTCLDY    42  32  67 CALM      30.14R
PORT HOPE        N/A     39  27  62 CALM      30.11F
PORT HURON     CLEAR     34  32  93 CALM      30.15S
TRI CITIES     CLEAR     49  33  54 S3        30.14S
MIDLAND        FAIR      42  35  74 CALM      30.12F
TROY           CLEAR     46  32  58 CALM      30.16S
SAGINAW HB     CLEAR     45  34  65 CALM      30.12F
$$
MIZ043>046-050>051-056>058-064>065-071>073-077>080-230500-
SOUTHWEST LOWER MICHIGAN

CITY           SKY/WX    TMP DP  RH WIND       PRES   REMARKS
BATTLE CREEK   CLEAR     44  33  65 CALM      30.15S
BENTON HARBOR  CLEAR     38  30  73 CALM      30.16S
BIG RAPIDS     CLEAR     42  28  58 CALM      30.13S
COLDWATER      CLEAR     46  33  59 CALM      30.14S
FREMONT        FAIR      42  23  46 CALM      30.14F
HOLLAND        CLEAR     41  33  73 CALM      30.16S
GRAND RAPIDS   CLEAR     49  32  52 SW3       30.15R
IONIA          FAIR      49  33  54 SW6       30.14S
KALAMAZOO      CLEAR     47  28  47 N3        30.15F
LUDINGTON      CLEAR     40  34  80 SW3       30.13S
MARSHALL       CLEAR     40  31  69 CALM      30.14S
MOUNT PLEASANT CLEAR     48  34  59 SW3       30.11F
MUSKEGON       CLEAR     41  30  65 S3        30.15S
SOUTH HAVEN    CLEAR     38  31  76 CALM      30.17S
$$
MIZ016>042-230500-
NORTHERN LOWER MICHIGAN

CITY           SKY/WX    TMP DP  RH WIND       PRES   REMARKS
ALPENA         CLEAR     39  27  62 S7        30.09F WCI  34
BEAVER ISLAND  CLEAR     50  20  30 S10G18    30.04F
BELLAIRE       CLEAR     36  31  82 CALM      30.09F
CADILLAC       CLEAR     36  28  74 CALM      30.10F
CHARLEVOIX     CLEAR     46  28  48 S5        30.10S
FRANKFORT      CLEAR     42  24  49 CALM      30.10F
GAYLORD        CLEAR     42  23  46 SW3       30.09F
GRAYLING       CLEAR     32  28  84 CALM      30.11S
HARBOR SPRINGS CLEAR     39  29  67 CALM      30.07F
HOUGHTON LAKE  CLEAR     46  32  58 S5        30.11F
MANISTEE       CLEAR     35  30  82 E3        30.11F
OSCODA         CLEAR     36  28  72 CALM      30.12F
PELLSTON       CLEAR     34  25  69 CALM      30.07F
ROGERS CITY    CLEAR     46  26  46 S7        30.09F
TRAVERSE CITY  CLEAR     44  28  53 S3        30.08F
$$
MIZ007>008-015-230500-
EASTERN UPPER MICHIGAN

CITY           SKY/WX    TMP DP  RH WIND       PRES   REMARKS
MACKINAC ISLAN CLEAR     41  27  56 S7        30.05F
NEWBERRY       CLEAR     41  27  57 SW10      30.02F
S. S. MARIE    PTCLDY    45  27  49 S5        30.03F
MUNISING         N/A     49  30  48 W15G25    30.02R
$$
MIZ004>006-011>014-085-230500-
CENTRAL UPPER MICHIGAN

CITY           SKY/WX    TMP DP  RH WIND       PRES   REMARKS
MANISTIQUE     CLEAR     42  32  68 S12       30.03F
ESCANABA       CLEAR     45  37  73 SW5       30.02F
MENOMINEE      CLEAR     50  36  58 SW9       30.06F
SAWYER-GWINN   PTCLDY    47  31  53 N5        30.03R
$$
MIZ001>003-009>011-084-230500-
WESTERN UPPER MICHIGAN

CITY           SKY/WX    TMP DP  RH WIND       PRES   REMARKS
IRON MOUNTAIN  CLEAR     55  28  35 SW7       30.02S
HOUGHTON       PTCLDY    47  37  68 N8        30.03S
COPPER HARBOR    N/A     45  39  79 N14       30.01F
IRONWOOD       CLEAR     50  39  66 E3        30.06F
$$

ABBREVIATIONS USED IN REMARKS
   TC - TEMPERATURE IN CELSIUS
  WCI - WIND CHILL INDEX
   HX - HEAT INDEX
  VSB - VISIBILITY





USA.gov is the U.S. government's official web portal to all federal, state and local government web resources and services.